Tracking 31027 objects as of 19-Jul-2025
HD Live streaming from Space Station
objects crossing your sky now

OPS 4682 DEB

Track OPS 4682 DEB now!
10-day predictions


NORAD ID: 38419
Int'l Code: 1965-027DY
Perigee: 1,265.2 km
Apogee: 1,312.4 km
Inclination: 90.2 °
Period: 111.2 minutes
Semi major axis: 7659 km
RCS: 0.007 m2 (small)
Launch date: April 3, 1965
Source: United States (US)
Launch site: AIR FORCE WESTERN TEST RANGE (AFWTR)

Note: This is SATELLITE DEBRIS
Your satellite tracking list
KL-BETA B
Track 1 satellite(s)




NASA's NSSDC Master Catalog

Two Line Element Set (TLE):
1 38419U 65027DY  25189.72579729 -.00000089  00000-0 -34166-3 0  9990
2 38419  90.2368 358.2947 0030802   2.7222 357.4060 12.95015506256610
Source of the keplerian elements: AFSPC